,,,PA_Meas_PMT16A,,PR_Meas_QMR101_102,,RH_Meas_QMH101,,SR_Meas_QMS101,,TA_Meas_QMH101,,GenWind,,GenWind,
date,time,status,PA,status,PR,status,RH,status,SR,status,TA,status,DirAvg,status,SpdAvg,
2009-06-06, 00:00:04,VALID,1003.97,VALID,0,VALID,85.0925,VALID,0,VALID,26.2329,VALID,347,VALID,0.468359,
2009-06-06, 00:01:04,VALID,1003.98,VALID,0,VALID,85.1841,VALID,0,VALID,26.2349,VALID,341,VALID,0.502344,
2009-06-06, 00:02:04,VALID,1003.97,VALID,0,VALID,85.2299,VALID,0,VALID,26.2154,VALID,341,VALID,0.438281,
2009-06-06, 00:03:04,VALID,1003.98,VALID,0,VALID,85.4587,VALID,0,VALID,26.1745,VALID,341,VALID,0.0410156,
2009-06-06, 00:04:04,VALID,1003.93,VALID,0,VALID,85.5274,VALID,0,VALID,26.1765,VALID,347,VALID,0.634766,
2009-06-06, 00:05:04,VALID,1003.93,VALID,0,VALID,85.7868,VALID,0,VALID,26.157,VALID,337,VALID,0.589063,
2009-06-06, 00:06:04,VALID,1003.92,VALID,0,VALID,86.0843,VALID,0,VALID,26.0966,VALID,338,VALID,0.518359,
2009-06-06, 00:07:04,VALID,1003.93,VALID,0,VALID,86.1987,VALID,0,VALID,26.0596,VALID,293,VALID,0.649609,
2009-06-06, 00:08:04,VALID,1003.92,VALID,0,VALID,86.6031,VALID,0,VALID,26.0401,VALID,292,VALID,0.0597656,
2009-06-06, 00:09:04,VALID,1003.95,VALID,0,VALID,86.7327,VALID,0,VALID,26.0012,VALID,292,VALID,0.0222656,
2009-06-06, 00:10:04,VALID,1003.94,VALID,0,VALID,86.9006,VALID,0,VALID,26.0012,VALID,291,VALID,0.139844,
2009-06-06, 00:11:04,VALID,1003.91,VALID,0,VALID,86.809,VALID,0,VALID,25.9622,VALID,322,VALID,0.391016,
2009-06-06, 00:12:04,VALID,1003.92,VALID,0,VALID,86.9235,VALID,0,VALID,25.9622,VALID,345,VALID,0.359375,
2009-06-06, 00:13:04,VALID,1003.91,VALID,0,VALID,86.9692,VALID,0,VALID,25.9213,VALID,356,VALID,0.571484,
2009-06-06, 00:14:04,VALID,1003.92,VALID,0,VALID,87.0226,VALID,0,VALID,25.9038,VALID,356,VALID,0.464453,
2009-06-06, 00:15:04,VALID,1003.9,VALID,0,VALID,87.1752,VALID,0,VALID,25.8843,VALID,356,VALID,0.150781,
2009-06-06, 00:16:04,VALID,1003.88,VALID,0,VALID,87.2362,VALID,0,VALID,25.8648,VALID,356,VALID,0.00546875,
2009-06-06, 00:17:04,VALID,1003.87,VALID,0,VALID,87.3049,VALID,0,VALID,25.8453,VALID,355,VALID,0.128516,
2009-06-06, 00:18:04,VALID,1003.82,VALID,0,VALID,87.1523,VALID,0,VALID,25.8259,VALID,355,VALID,0.530078,
2009-06-06, 00:19:04,VALID,1003.83,VALID,0,VALID,87.1447,VALID,0,VALID,25.8044,VALID,5,VALID,0.609766,
2009-06-06, 00:20:04,VALID,1003.82,VALID,0,VALID,87.0608,VALID,0.100563,VALID,25.8044,VALID,356,VALID,0.536328,
2009-06-06, 00:21:04,VALID,1003.81,VALID,0,VALID,86.9845,VALID,0,VALID,25.8044,VALID,335,VALID,0,
2009-06-06, 00:22:04,VALID,1003.79,VALID,0,VALID,87.1523,VALID,0,VALID,25.785,VALID,335,VALID,0.171094,
2009-06-06, 00:23:04,VALID,1003.8,VALID,0,VALID,87.0226,VALID,0,VALID,25.8064,VALID,350,VALID,0.676953,
2009-06-06, 00:24:04,VALID,1003.8,VALID,0,VALID,87.0074,VALID,0,VALID,25.8064,VALID,358,VALID,0.299219,
2009-06-06, 00:25:04,VALID,1003.83,VALID,0,VALID,87.0226,VALID,0,VALID,25.7869,VALID,356,VALID,0.473828,
2009-06-06, 00:26:04,VALID,1003.83,VALID,0,VALID,87.1142,VALID,0,VALID,25.7869,VALID,357,VALID,0.0523437,
2009-06-06, 00:27:04,VALID,1003.87,VALID,0,VALID,87.1294,VALID,0,VALID,25.7674,VALID,357,VALID,0.102344,
2009-06-06, 00:28:04,VALID,1003.82,VALID,0,VALID,87.1676,VALID,0,VALID,25.7674,VALID,356,VALID,0.367188,
2009-06-06, 00:29:04,VALID,1003.88,VALID,0,VALID,87.282,VALID,0,VALID,25.7674,VALID,354,VALID,0.628516,
2009-06-06, 00:30:04,VALID,1003.82,VALID,0,VALID,87.4804,VALID,0,VALID,25.7285,VALID,353,VALID,0.525781,
2009-06-06, 00:31:04,VALID,1003.83,VALID,0,VALID,87.5185,VALID,0,VALID,25.67,VALID,354,VALID,0.560547,
2009-06-06, 00:32:04,VALID,1003.86,VALID,0,VALID,87.5261,VALID,0,VALID,25.67,VALID,356,VALID,0.539844,
2009-06-06, 00:33:04,VALID,1003.87,VALID,0,VALID,87.5567,VALID,0,VALID,25.6506,VALID,340,VALID,0.436328,
2009-06-06, 00:34:04,VALID,1003.85,VALID,0,VALID,87.5948,VALID,0,VALID,25.6097,VALID,346,VALID,0.544531,
2009-06-06, 00:35:04,VALID,1003.87,VALID,0,VALID,87.755,VALID,0,VALID,25.5902,VALID,348,VALID,0.625391,
2009-06-06, 00:36:04,VALID,1003.87,VALID,0,VALID,87.7932,VALID,0,VALID,25.6116,VALID,353,VALID,0.755469,
2009-06-06, 00:37:04,VALID,1003.89,VALID,0,VALID,87.6558,VALID,0,VALID,25.5921,VALID,3,VALID,0.58125,
2009-06-06, 00:38:04,VALID,1003.87,VALID,0,VALID,87.7932,VALID,0,VALID,25.5707,VALID,3,VALID,0.598437,
2009-06-06, 00:39:04,VALID,1003.86,VALID,0,VALID,87.816,VALID,0,VALID,25.5921,VALID,2,VALID,0.402734,
2009-06-06, 00:40:04,VALID,1003.9,VALID,0,VALID,87.6329,VALID,0,VALID,25.5513,VALID,2,VALID,0.625391,
2009-06-06, 00:41:04,VALID,1003.85,VALID,0,VALID,87.4346,VALID,0,VALID,25.6116,VALID,357,VALID,0.49375,
2009-06-06, 00:42:04,VALID,1003.83,VALID,0,VALID,87.3049,VALID,0,VALID,25.6116,VALID,354,VALID,0.669141,
2009-06-06, 00:43:04,VALID,1003.83,VALID,0,VALID,87.2973,VALID,0,VALID,25.6292,VALID,352,VALID,0.619922,
2009-06-06, 00:44:04,VALID,1003.84,VALID,0,VALID,87.0989,VALID,0,VALID,25.67,VALID,339,VALID,0.309375,
2009-06-06, 00:45:04,VALID,1003.83,VALID,0,VALID,86.8777,VALID,0,VALID,25.6895,VALID,349,VALID,0.194141,
2009-06-06, 00:46:04,VALID,1003.81,VALID,0,VALID,86.8853,VALID,0,VALID,25.709,VALID,349,VALID,0.009375,
2009-06-06, 00:47:04,VALID,1003.81,VALID,0,VALID,86.8548,VALID,0,VALID,25.6895,VALID,349,VALID,0.0148437,
2009-06-06, 00:48:04,VALID,1003.8,VALID,0,VALID,86.7633,VALID,0,VALID,25.7285,VALID,349,VALID,0.178125,
2009-06-06, 00:49:04,VALID,1003.78,VALID,0,VALID,86.5878,VALID,0,VALID,25.7285,VALID,349,VALID,0.469531,
2009-06-06, 00:50:04,VALID,1003.79,VALID,0,VALID,86.1529,VALID,0,VALID,25.748,VALID,354,VALID,0.610937,
2009-06-06, 00:51:04,VALID,1003.76,VALID,0,VALID,86.1453,VALID,0,VALID,25.7655,VALID,355,VALID,0.196484,
2009-06-06, 00:52:04,VALID,1003.76,VALID,0,VALID,86.1835,VALID,0,VALID,25.785,VALID,355,VALID,0.336719,
2009-06-06, 00:53:04,VALID,1003.76,VALID,0,VALID,86.2216,VALID,0,VALID,25.8064,VALID,355,VALID,0.0757812,
2009-06-06, 00:54:04,VALID,1003.76,VALID,0,VALID,86.4428,VALID,0,VALID,25.8064,VALID,355,VALID,0.241797,
2009-06-06, 00:55:04,VALID,1003.74,VALID,0,VALID,86.5802,VALID,0,VALID,25.7869,VALID,355,VALID,0.166016,
2009-06-06, 00:56:04,VALID,1003.76,VALID,0,VALID,86.5878,VALID,0,VALID,25.748,VALID,355,VALID,0.575781,
2009-06-06, 00:57:04,VALID,1003.75,VALID,0,VALID,86.7099,VALID,0,VALID,25.7285,VALID,355,VALID,0.331641,
2009-06-06, 00:58:04,VALID,1003.74,VALID,0,VALID,87.1752,VALID,0,VALID,25.6895,VALID,355,VALID,0.261328,
2009-06-06, 00:59:04,VALID,1003.72,VALID,0,VALID,87.5109,VALID,0,VALID,25.6311,VALID,355,VALID,0.1125,
2009-06-06, 01:00:04,VALID,1003.72,VALID,0,VALID,87.7169,VALID,0,VALID,25.5727,VALID,355,VALID,0.378516,
2009-06-06, 01:01:04,VALID,1003.74,VALID,0,VALID,87.816,VALID,0,VALID,25.5318,VALID,355,VALID,0.345313,
2009-06-06, 01:02:04,VALID,1003.7,VALID,0,VALID,88.1975,VALID,0,VALID,25.4948,VALID,355,VALID,0.310156,
2009-06-06, 01:03:04,VALID,1003.68,VALID,0,VALID,88.5026,VALID,0,VALID,25.4169,VALID,355,VALID,0.173828,
2009-06-06, 01:04:04,VALID,1003.68,VALID,0,VALID,88.6094,VALID,0,VALID,25.3779,VALID,355,VALID,0.297656,
2009-06-06, 01:05:04,VALID,1003.68,VALID,0,VALID,88.7773,VALID,0,VALID,25.3584,VALID,355,VALID,0.266797,
2009-06-06, 01:06:04,VALID,1003.69,VALID,0,VALID,89.0977,VALID,0,VALID,25.339,VALID,355,VALID,0.240625,
2009-06-06, 01:07:04,VALID,1003.68,VALID,0,VALID,89.3418,VALID,0,VALID,25.2611,VALID,355,VALID,0.351953,
2009-06-06, 01:08:04,VALID,1003.65,VALID,0,VALID,89.5325,VALID,0,VALID,25.2221,VALID,355,VALID,0.398047,
2009-06-06, 01:09:04,VALID,1003.65,VALID,0,VALID,89.769,VALID,0,VALID,25.1637,VALID,355,VALID,0.204297,
2009-06-06, 01:10:04,VALID,1003.63,VALID,0,VALID,89.9674,VALID,0,VALID,25.1442,VALID,355,VALID,0.197656,
2009-06-06, 01:11:04,VALID,1003.63,VALID,0,VALID,90.1276,VALID,0,VALID,25.1053,VALID,355,VALID,0.0210938,
2009-06-06, 01:12:04,VALID,1003.61,VALID,0,VALID,90.1963,VALID,0,VALID,25.0858,VALID,355,VALID,0.146484,
2009-06-06, 01:13:04,VALID,1003.62,VALID,0,VALID,90.3641,VALID,0,VALID,25.0663,VALID,355,VALID,0.293359,
2009-06-06, 01:14:04,VALID,1003.59,VALID,0,VALID,90.5624,VALID,0,VALID,25.0274,VALID,355,VALID,0.0570313,
2009-06-06, 01:15:04,VALID,1003.57,VALID,0,VALID,90.8142,VALID,0,VALID,25.0079,VALID,355,VALID,0,
2009-06-06, 01:16:04,VALID,1003.56,VALID,0,VALID,90.9134,VALID,0,VALID,24.9476,VALID,355,VALID,0,
2009-06-06, 01:17:04,VALID,1003.56,VALID,0,VALID,91.0507,VALID,0,VALID,24.969,VALID,355,VALID,0.180469,
2009-06-06, 01:18:04,VALID,1003.49,VALID,0,VALID,91.127,VALID,0,VALID,24.969,VALID,355,VALID,0,
2009-06-06, 01:19:04,VALID,1003.49,VALID,0,VALID,91.2338,VALID,0,VALID,24.9904,VALID,355,VALID,0,
2009-06-06, 01:20:04,VALID,1003.47,VALID,0,VALID,91.2872,VALID,0,VALID,24.9495,VALID,355,VALID,0.112891,
2009-06-06, 01:21:04,VALID,1003.46,VALID,0,VALID,91.2948,VALID,0,VALID,24.9495,VALID,355,VALID,0.287109,
2009-06-06, 01:22:04,VALID,1003.44,VALID,0,VALID,91.3711,VALID,0,VALID,24.9671,VALID,355,VALID,0.146094,
2009-06-06, 01:23:04,VALID,1003.43,VALID,0,VALID,91.3482,VALID,0,VALID,24.969,VALID,355,VALID,0.238281,
2009-06-06, 01:24:04,VALID,1003.41,VALID,0,VALID,91.4321,VALID,0,VALID,24.9885,VALID,355,VALID,0.112891,
2009-06-06, 01:25:04,VALID,1003.43,VALID,0,VALID,91.455,VALID,0,VALID,24.969,VALID,355,VALID,0,
2009-06-06, 01:26:04,VALID,1003.42,VALID,0,VALID,91.5084,VALID,0,VALID,24.9495,VALID,355,VALID,0.139453,
2009-06-06, 01:27:04,VALID,1003.41,VALID,0,VALID,91.5237,VALID,0,VALID,24.9476,VALID,355,VALID,0.264844,
2009-06-06, 01:28:04,VALID,1003.41,VALID,0,VALID,91.5923,VALID,0,VALID,25.0079,VALID,356,VALID,0.248047,
2009-06-06, 01:29:04,VALID,1003.39,VALID,0,VALID,91.5389,VALID,0,VALID,24.9866,VALID,356,VALID,0.0238281,
2009-06-06, 01:30:04,VALID,1003.38,VALID,0,VALID,91.5695,VALID,0.100563,VALID,25.0274,VALID,356,VALID,0.272656,
2009-06-06, 01:31:04,VALID,1003.41,VALID,0,VALID,91.5389,VALID,0,VALID,25.006,VALID,356,VALID,0,
2009-06-06, 01:32:04,VALID,1003.37,VALID,0,VALID,91.5466,VALID,0,VALID,25.0469,VALID,304,VALID,0,
2009-06-06, 01:33:04,VALID,1003.36,VALID,0,VALID,91.4398,VALID,0,VALID,25.0663,VALID,323,VALID,0,
2009-06-06, 01:34:04,VALID,1003.36,VALID,0,VALID,91.3711,VALID,0,VALID,25.1034,VALID,328,VALID,0,
2009-06-06, 01:35:04,VALID,1003.35,VALID,0,VALID,91.2033,VALID,0,VALID,25.1442,VALID,328,VALID,0,
2009-06-06, 01:36:04,VALID,1003.35,VALID,0,VALID,91.0736,VALID,0,VALID,25.1637,VALID,328,VALID,0,
2009-06-06, 01:37:04,VALID,1003.35,VALID,0,VALID,90.9668,VALID,0,VALID,25.1637,VALID,328,VALID,0,
2009-06-06, 01:38:04,VALID,1003.34,VALID,0,VALID,90.8066,VALID,0,VALID,25.224,VALID,328,VALID,0,
2009-06-06, 01:39:04,VALID,1003.32,VALID,0,VALID,90.6464,VALID,0,VALID,25.1813,VALID,328,VALID,0,
2009-06-06, 01:40:04,VALID,1003.33,VALID,0,VALID,90.6311,VALID,0,VALID,25.2007,VALID,328,VALID,0,
2009-06-06, 01:41:04,VALID,1003.37,VALID,0,VALID,90.7074,VALID,0.100563,VALID,25.2202,VALID,328,VALID,0,
2009-06-06, 01:42:04,VALID,1003.32,VALID,0,VALID,90.7989,VALID,0,VALID,25.2202,VALID,328,VALID,0,
2009-06-06, 01:43:04,VALID,1003.33,VALID,0,VALID,90.8981,VALID,0,VALID,25.2007,VALID,328,VALID,0,
2009-06-06, 01:44:04,VALID,1003.35,VALID,0,VALID,91.0736,VALID,0,VALID,25.1813,VALID,328,VALID,0,
2009-06-06, 01:45:04,VALID,1003.36,VALID,0,VALID,90.8676,VALID,0,VALID,25.1832,VALID,328,VALID,0,
2009-06-06, 01:46:04,VALID,1003.38,VALID,0,VALID,91.1499,VALID,0.100563,VALID,25.1618,VALID,328,VALID,0,
2009-06-06, 01:47:04,VALID,1003.35,VALID,0,VALID,91.2796,VALID,0,VALID,25.1637,VALID,328,VALID,0,
2009-06-06, 01:48:04,VALID,1003.36,VALID,0,VALID,91.333,VALID,0,VALID,25.1442,VALID,328,VALID,0,
2009-06-06, 01:49:04,VALID,1003.36,VALID,0,VALID,91.4855,VALID,0,VALID,25.1442,VALID,328,VALID,0,
2009-06-06, 01:50:04,VALID,1003.36,VALID,0,VALID,91.5695,VALID,0,VALID,25.1053,VALID,328,VALID,0,
2009-06-06, 01:51:04,VALID,1003.36,VALID,0,VALID,91.6839,VALID,0,VALID,25.045,VALID,328,VALID,0,
2009-06-06, 01:52:04,VALID,1003.37,VALID,0,VALID,91.7449,VALID,0,VALID,25.0255,VALID,328,VALID,0,
2009-06-06, 01:53:04,VALID,1003.4,VALID,0,VALID,91.7907,VALID,0,VALID,25.0255,VALID,328,VALID,0,
2009-06-06, 01:54:04,VALID,1003.39,VALID,0,VALID,91.8899,VALID,0,VALID,25.0255,VALID,328,VALID,0,
2009-06-06, 01:55:04,VALID,1003.42,VALID,0,VALID,91.8822,VALID,0,VALID,25.0274,VALID,328,VALID,0,
2009-06-06, 01:56:04,VALID,1003.43,VALID,0,VALID,91.8975,VALID,0,VALID,25.0079,VALID,328,VALID,0,
2009-06-06, 01:57:04,VALID,1003.44,VALID,0,VALID,91.9662,VALID,0.100563,VALID,24.9885,VALID,328,VALID,0,
2009-06-06, 01:58:04,VALID,1003.44,VALID,0,VALID,92.0501,VALID,0,VALID,24.9885,VALID,328,VALID,0,
2009-06-06, 01:59:04,VALID,1003.49,VALID,0,VALID,92.1035,VALID,0,VALID,24.969,VALID,328,VALID,0,
2009-06-06, 02:00:04,VALID,1003.46,VALID,0,VALID,92.1645,VALID,0,VALID,24.9495,VALID,328,VALID,0,
2009-06-06, 02:01:04,VALID,1003.52,VALID,0,VALID,92.2484,VALID,0.100563,VALID,24.9282,VALID,328,VALID,0,
2009-06-06, 02:02:04,VALID,1003.5,VALID,0,VALID,92.2789,VALID,0,VALID,24.9087,VALID,328,VALID,0,
2009-06-06, 02:03:04,VALID,1003.5,VALID,0,VALID,92.3629,VALID,0,VALID,24.93,VALID,328,VALID,0,
2009-06-06, 02:04:04,VALID,1003.48,VALID,0,VALID,92.4391,VALID,0,VALID,24.9282,VALID,328,VALID,0,
2009-06-06, 02:05:04,VALID,1003.52,VALID,0,VALID,92.4849,VALID,0,VALID,24.9282,VALID,328,VALID,0,
2009-06-06, 02:06:04,VALID,1003.52,VALID,0,VALID,92.5383,VALID,0,VALID,24.9476,VALID,328,VALID,0,
2009-06-06, 02:07:04,VALID,1003.48,VALID,0,VALID,92.5612,VALID,0.100563,VALID,24.9495,VALID,330,VALID,0,
2009-06-06, 02:08:04,VALID,1003.49,VALID,0,VALID,92.6146,VALID,0,VALID,24.9282,VALID,330,VALID,0,
2009-06-06, 02:09:04,VALID,1003.49,VALID,0,VALID,92.5917,VALID,0,VALID,24.969,VALID,330,VALID,0,
2009-06-06, 02:10:04,VALID,1003.47,VALID,0,VALID,92.5993,VALID,0,VALID,24.969,VALID,330,VALID,0,
2009-06-06, 02:11:04,VALID,1003.45,VALID,0,VALID,92.5154,VALID,0,VALID,24.9866,VALID,330,VALID,0,
2009-06-06, 02:12:04,VALID,1003.45,VALID,0,VALID,92.5231,VALID,0.100563,VALID,25.006,VALID,330,VALID,0,
2009-06-06, 02:13:04,VALID,1003.44,VALID,0,VALID,92.5154,VALID,0,VALID,25.045,VALID,330,VALID,0,
2009-06-06, 02:14:04,VALID,1003.41,VALID,0,VALID,92.4315,VALID,0,VALID,25.0858,VALID,330,VALID,0,
2009-06-06, 02:15:04,VALID,1003.41,VALID,0,VALID,92.3781,VALID,0.100563,VALID,25.0644,VALID,330,VALID,0,
2009-06-06, 02:16:04,VALID,1003.41,VALID,0,VALID,92.2713,VALID,0,VALID,25.0858,VALID,330,VALID,0,
2009-06-06, 02:17:04,VALID,1003.38,VALID,0,VALID,92.2027,VALID,0,VALID,25.0839,VALID,330,VALID,0,
2009-06-06, 02:18:04,VALID,1003.4,VALID,0,VALID,92.1111,VALID,0,VALID,25.1248,VALID,330,VALID,0,
2009-06-06, 02:19:04,VALID,1003.34,VALID,0,VALID,91.9738,VALID,0.100563,VALID,25.1423,VALID,330,VALID,0,
2009-06-06, 02:20:04,VALID,1003.35,VALID,0,VALID,91.8059,VALID,0,VALID,25.1423,VALID,330,VALID,0,
2009-06-06, 02:21:04,VALID,1003.34,VALID,0,VALID,91.6229,VALID,0,VALID,25.2027,VALID,332,VALID,0,
2009-06-06, 02:22:04,VALID,1003.33,VALID,0,VALID,91.4092,VALID,0,VALID,25.2027,VALID,332,VALID,0,
2009-06-06, 02:23:04,VALID,1003.33,VALID,0,VALID,91.3177,VALID,0,VALID,25.2416,VALID,332,VALID,0,
2009-06-06, 02:24:04,VALID,1003.34,VALID,0,VALID,91.188,VALID,0,VALID,25.2416,VALID,332,VALID,0,
2009-06-06, 02:25:04,VALID,1003.32,VALID,0,VALID,91.1575,VALID,0,VALID,25.2202,VALID,332,VALID,0,
2009-06-06, 02:26:04,VALID,1003.32,VALID,0,VALID,91.2414,VALID,0,VALID,25.2611,VALID,332,VALID,0,
2009-06-06, 02:27:04,VALID,1003.33,VALID,0,VALID,91.2109,VALID,0,VALID,25.2611,VALID,332,VALID,0,
2009-06-06, 02:28:04,VALID,1003.32,VALID,0,VALID,91.1651,VALID,0,VALID,25.2397,VALID,332,VALID,0,
2009-06-06, 02:29:04,VALID,1003.36,VALID,0,VALID,91.2948,VALID,0,VALID,25.2806,VALID,332,VALID,0,
2009-06-06, 02:30:04,VALID,1003.33,VALID,0,VALID,91.2872,VALID,0,VALID,25.2416,VALID,332,VALID,0,
2009-06-06, 02:31:04,VALID,1003.37,VALID,0,VALID,91.3482,VALID,0,VALID,25.2007,VALID,332,VALID,0,
2009-06-06, 02:32:04,VALID,1003.37,VALID,0,VALID,91.4016,VALID,0,VALID,25.2221,VALID,332,VALID,0,
2009-06-06, 02:33:04,VALID,1003.39,VALID,0,VALID,91.4626,VALID,0,VALID,25.1832,VALID,332,VALID,0,
2009-06-06, 02:34:04,VALID,1003.4,VALID,0,VALID,91.5237,VALID,0,VALID,25.1637,VALID,332,VALID,0,
2009-06-06, 02:35:04,VALID,1003.41,VALID,0,VALID,91.6076,VALID,0,VALID,25.1229,VALID,332,VALID,0,
2009-06-06, 02:36:04,VALID,1003.41,VALID,0,VALID,91.6305,VALID,0,VALID,25.1248,VALID,332,VALID,0,
2009-06-06, 02:37:04,VALID,1003.42,VALID,0,VALID,91.6991,VALID,0,VALID,25.1442,VALID,332,VALID,0,
2009-06-06, 02:38:04,VALID,1003.41,VALID,0,VALID,91.8059,VALID,0,VALID,25.1637,VALID,332,VALID,0,
2009-06-06, 02:39:04,VALID,1003.42,VALID,0,VALID,91.722,VALID,0,VALID,25.1442,VALID,332,VALID,0,
2009-06-06, 02:40:04,VALID,1003.4,VALID,0,VALID,91.5695,VALID,0,VALID,25.1442,VALID,333,VALID,0,
2009-06-06, 02:41:04,VALID,1003.42,VALID,0,VALID,91.3711,VALID,0,VALID,25.1423,VALID,333,VALID,0,
2009-06-06, 02:42:04,VALID,1003.43,VALID,0,VALID,91.2796,VALID,0,VALID,25.1813,VALID,333,VALID,0,
2009-06-06, 02:43:05,VALID,1003.42,VALID,0,VALID,91.1422,VALID,0,VALID,25.2221,VALID,333,VALID,0,
2009-06-06, 02:44:05,VALID,1003.4,VALID,0,VALID,90.8829,VALID,0,VALID,25.2416,VALID,333,VALID,0,
2009-06-06, 02:45:05,VALID,1003.42,VALID,0,VALID,90.5548,VALID,0,VALID,25.3195,VALID,333,VALID,0,
2009-06-06, 02:46:05,VALID,1003.43,VALID,0,VALID,90.2344,VALID,0,VALID,25.3176,VALID,333,VALID,0,
2009-06-06, 02:47:05,VALID,1003.45,VALID,0,VALID,90.1886,VALID,0.100563,VALID,25.3955,VALID,333,VALID,0,
2009-06-06, 02:48:05,VALID,1003.43,VALID,0,VALID,90.1734,VALID,0,VALID,25.4363,VALID,333,VALID,0,
2009-06-06, 02:49:05,VALID,1003.43,VALID,0,VALID,90.1505,VALID,0,VALID,25.4149,VALID,333,VALID,0,
2009-06-06, 02:50:05,VALID,1003.48,VALID,0,VALID,90.0666,VALID,0,VALID,25.3955,VALID,333,VALID,0,
2009-06-06, 02:51:05,VALID,1003.47,VALID,0,VALID,90.0437,VALID,0.100563,VALID,25.3955,VALID,333,VALID,0,
2009-06-06, 02:52:05,VALID,1003.48,VALID,0,VALID,90.0437,VALID,0,VALID,25.3974,VALID,333,VALID,0,
2009-06-06, 02:53:05,VALID,1003.45,VALID,0,VALID,90.1657,VALID,0,VALID,25.3584,VALID,333,VALID,0,
2009-06-06, 02:54:05,VALID,1003.5,VALID,0,VALID,90.2497,VALID,0.100563,VALID,25.337,VALID,333,VALID,0,
2009-06-06, 02:55:05,VALID,1003.53,VALID,0,VALID,90.448,VALID,0,VALID,25.337,VALID,352,VALID,0.442187,
2009-06-06, 02:56:05,VALID,1003.54,VALID,0,VALID,90.593,VALID,0.100563,VALID,25.2981,VALID,352,VALID,0.339844,
2009-06-06, 02:57:05,VALID,1003.56,VALID,0,VALID,90.4251,VALID,0,VALID,25.3,VALID,341,VALID,0.648438,
2009-06-06, 02:58:05,VALID,1003.61,VALID,0,VALID,90.2649,VALID,0,VALID,25.3176,VALID,337,VALID,0.484766,
2009-06-06, 02:59:05,VALID,1003.6,VALID,0,VALID,90.0589,VALID,0,VALID,25.337,VALID,338,VALID,0.665234,
2009-06-06, 03:00:05,VALID,1003.6,VALID,0,VALID,89.8301,VALID,0,VALID,25.376,VALID,339,VALID,0.373828,
2009-06-06, 03:01:05,VALID,1003.59,VALID,0,VALID,89.6012,VALID,0.100563,VALID,25.4149,VALID,339,VALID,0.0957031,
2009-06-06, 03:02:05,VALID,1003.6,VALID,0,VALID,89.5554,VALID,0,VALID,25.4753,VALID,339,VALID,0.352344,
2009-06-06, 03:03:05,VALID,1003.59,VALID,0,VALID,89.3876,VALID,0,VALID,25.4734,VALID,339,VALID,0.065625,
2009-06-06, 03:04:05,VALID,1003.57,VALID,0,VALID,89.2503,VALID,0,VALID,25.5123,VALID,339,VALID,0.355859,
2009-06-06, 03:05:05,VALID,1003.58,VALID,0,VALID,88.9451,VALID,0,VALID,25.5513,VALID,346,VALID,0.261719,
2009-06-06, 03:06:05,VALID,1003.59,VALID,0,VALID,88.7544,VALID,0.100563,VALID,25.6116,VALID,346,VALID,0.3,
2009-06-06, 03:07:05,VALID,1003.53,VALID,0,VALID,88.5026,VALID,0,VALID,25.6311,VALID,2,VALID,0.152734,
2009-06-06, 03:08:05,VALID,1003.57,VALID,0,VALID,88.3195,VALID,0,VALID,25.6681,VALID,335,VALID,0.398438,
2009-06-06, 03:09:05,VALID,1003.55,VALID,0,VALID,88.2509,VALID,0,VALID,25.6662,VALID,336,VALID,0.00429688,
2009-06-06, 03:10:05,VALID,1003.56,VALID,0,VALID,88.0602,VALID,0,VALID,25.7071,VALID,346,VALID,0.492969,
2009-06-06, 03:11:05,VALID,1003.55,VALID,0,VALID,87.8771,VALID,0,VALID,25.748,VALID,327,VALID,0.166406,
2009-06-06, 03:12:05,VALID,1003.58,VALID,0,VALID,87.9152,VALID,0.100563,VALID,25.7869,VALID,327,VALID,0.0597656,
2009-06-06, 03:13:05,VALID,1003.57,VALID,0,VALID,87.755,VALID,0,VALID,25.785,VALID,328,VALID,0.349219,
2009-06-06, 03:14:05,VALID,1003.57,VALID,0,VALID,87.7245,VALID,0,VALID,25.8064,VALID,328,VALID,0,
2009-06-06, 03:15:05,VALID,1003.57,VALID,0,VALID,87.7321,VALID,0,VALID,25.8064,VALID,328,VALID,0,
2009-06-06, 03:16:05,VALID,1003.56,VALID,0,VALID,87.755,VALID,0.100563,VALID,25.8064,VALID,328,VALID,0,
2009-06-06, 03:17:05,VALID,1003.59,VALID,0,VALID,87.5719,VALID,0,VALID,25.8064,VALID,339,VALID,0.519531,
2009-06-06, 03:18:05,VALID,1003.56,VALID,0,VALID,87.3125,VALID,0,VALID,25.8453,VALID,357,VALID,0.548828,
2009-06-06, 03:19:05,VALID,1003.58,VALID,0,VALID,87.427,VALID,0,VALID,25.8434,VALID,357,VALID,0.471484,
2009-06-06, 03:20:05,VALID,1003.58,VALID,0,VALID,87.4041,VALID,0,VALID,25.8453,VALID,357,VALID,0.376953,
2009-06-06, 03:21:05,VALID,1003.58,VALID,0,VALID,87.4727,VALID,0,VALID,25.8259,VALID,357,VALID,0.279687,
2009-06-06, 03:22:05,VALID,1003.57,VALID,0,VALID,87.5185,VALID,0,VALID,25.8453,VALID,357,VALID,0,
2009-06-06, 03:23:05,VALID,1003.58,VALID,0,VALID,87.6024,VALID,0,VALID,25.8044,VALID,357,VALID,0.167187,
2009-06-06, 03:24:05,VALID,1003.62,VALID,0,VALID,87.7626,VALID,0,VALID,25.785,VALID,357,VALID,0.417578,
2009-06-06, 03:25:05,VALID,1003.59,VALID,0,VALID,87.8466,VALID,0,VALID,25.7655,VALID,357,VALID,0.161719,
2009-06-06, 03:26:05,VALID,1003.63,VALID,0,VALID,88.1975,VALID,0,VALID,25.7246,VALID,357,VALID,0.448828,
2009-06-06, 03:27:05,VALID,1003.6,VALID,0,VALID,88.3958,VALID,0,VALID,25.6895,VALID,357,VALID,0.40625,
2009-06-06, 03:28:05,VALID,1003.61,VALID,0,VALID,88.5942,VALID,0,VALID,25.67,VALID,357,VALID,0.490625,
2009-06-06, 03:29:05,VALID,1003.65,VALID,0,VALID,88.8765,VALID,0,VALID,25.6311,VALID,357,VALID,0.35,
2009-06-06, 03:30:05,VALID,1003.62,VALID,0,VALID,89.0214,VALID,0,VALID,25.5921,VALID,351,VALID,0.696094,
2009-06-06, 03:31:05,VALID,1003.63,VALID,0,VALID,89.235,VALID,0,VALID,25.5921,VALID,340,VALID,0.279687,
2009-06-06, 03:32:05,VALID,1003.62,VALID,0,VALID,89.2579,VALID,0,VALID,25.5921,VALID,340,VALID,0.207031,
2009-06-06, 03:33:05,VALID,1003.64,VALID,0,VALID,89.38,VALID,0,VALID,25.5941,VALID,340,VALID,0,
2009-06-06, 03:34:05,VALID,1003.63,VALID,0,VALID,89.4486,VALID,0,VALID,25.5941,VALID,340,VALID,0,
2009-06-06, 03:35:05,VALID,1003.61,VALID,0,VALID,89.5325,VALID,0,VALID,25.5532,VALID,340,VALID,0,
2009-06-06, 03:36:05,VALID,1003.63,VALID,0,VALID,89.5173,VALID,0,VALID,25.5532,VALID,340,VALID,0.247266,
2009-06-06, 03:37:05,VALID,1003.63,VALID,0,VALID,89.4334,VALID,0,VALID,25.5746,VALID,340,VALID,0.259375,
2009-06-06, 03:38:05,VALID,1003.65,VALID,0,VALID,89.441,VALID,0,VALID,25.5727,VALID,340,VALID,0,
2009-06-06, 03:39:05,VALID,1003.64,VALID,0,VALID,89.4181,VALID,0,VALID,25.5921,VALID,341,VALID,0.498047,
2009-06-06, 03:40:05,VALID,1003.68,VALID,0,VALID,89.5173,VALID,0,VALID,25.6136,VALID,341,VALID,0.538672,
2009-06-06, 03:41:05,VALID,1003.68,VALID,0,VALID,89.5325,VALID,0,VALID,25.5921,VALID,342,VALID,0.212109,
2009-06-06, 03:42:05,VALID,1003.68,VALID,0,VALID,89.6546,VALID,0,VALID,25.5707,VALID,342,VALID,0.438672,
2009-06-06, 03:43:05,VALID,1003.7,VALID,0,VALID,89.7461,VALID,0,VALID,25.5532,VALID,342,VALID,0.428906,
2009-06-06, 03:44:05,VALID,1003.72,VALID,0,VALID,89.9216,VALID,0,VALID,25.5551,VALID,342,VALID,0.439063,
2009-06-06, 03:45:05,VALID,1003.72,VALID,0,VALID,89.9216,VALID,0,VALID,25.4734,VALID,342,VALID,0.402344,
2009-06-06, 03:46:05,VALID,1003.74,VALID,0,VALID,89.9521,VALID,0,VALID,25.4928,VALID,343,VALID,0.557422,
2009-06-06, 03:47:05,VALID,1003.73,VALID,0,VALID,89.9445,VALID,0,VALID,25.5142,VALID,348,VALID,0.508984,
2009-06-06, 03:48:05,VALID,1003.73,VALID,0,VALID,89.7614,VALID,0,VALID,25.5532,VALID,349,VALID,0.287891,
2009-06-06, 03:49:05,VALID,1003.72,VALID,0,VALID,89.6393,VALID,0,VALID,25.5707,VALID,349,VALID,0.468359,